Regional Weather Roundup
Issued by NWS

Home | Current Version | Previous Version | Text Only | Print | Product List | Glossary Off
Versions: 1 2 3 4 5 6 7 8 9 10 11 12 13 14 15 16 17 18 19 20 21 22 23 24 25 26 27 28 29 30 31 32 33 34 35 36 37 38 39 40 41 42 43 44 45 46 47 48 49 50

000
ASUS43 KLOT 310906
RWRIL

ILLINOIS REGIONAL WEATHER ROUNDUP
NATIONAL WEATHER SERVICE CHICAGO/ROMEOVILLE IL
300 AM CST SAT JAN 31 2015

NOTE: "FAIR" INDICATES FEW OR NO CLOUDS BELOW 12,000 FEET WITH NO
SIGNIFICANT WEATHER AND/OR OBSTRUCTIONS TO VISIBILITY.

* THESE STATIONS ARE NOT UNDER NWS QUALITY CONTROL. THEY ALSO MAY NOT
  REPORT WEATHER SUCH AS PRECIPITATION OR FOG.

ILZ001-002-007-009-015-016-024-311000-
NORTHWEST ILLINOIS

CITY           SKY/WX    TMP DP  RH WIND       PRES   REMARKS
MOLINE         PTCLDY    26  18  71 SW6       30.27F WCI  19
STERLING*      CLEAR     23  18  80 CALM      30.28F
SAVANNA*       CLEAR     18  14  86 NE3       30.27F
$$

ILZ003-004-008-010-011-017-018-311000-
NORTH CENTRAL ILLINOIS

CITY           SKY/WX    TMP DP  RH WIND       PRES   REMARKS
ROCKFORD       PTCLDY    22  16  78 S6        30.28F WCI  14
FREEPORT*      CLEAR     23  17  78 SW16      30.26F WCI  10
ROCHELLE*      CLEAR     20  17  86 S8        30.28F WCI  10
DE KALB*       CLOUDY    19  16  88 S7        30.27F WCI  10
PERU*          CLEAR     23  19  85 SW8       30.31F WCI  14
$$

ILZ005-006-012>014-019>023-311000-
NORTHEAST ILLINOIS

CITY           SKY/WX    TMP DP  RH WIND       PRES   REMARKS
CHICAGO-OHARE  CLOUDY    24  17  74 SW6       30.28F WCI  17
CHICAGO-MIDWAY CLOUDY    27  20  75 SW8       30.30F WCI  19
AURORA         CLOUDY    23  16  74 S7        30.29F WCI  15
LANSING*       CLOUDY    26  21  82 SW7       30.31F WCI  18
JOLIET*        CLOUDY    25  21  84 SW5       30.31F WCI  19
WAUKEGAN       CLOUDY    21  16  81 S6        30.26F WCI  13
DUPAGE AIRPORT CLOUDY    24  18  77 SW8       30.28F WCI  15
KANKAKEE*      CLOUDY    26  22  84 S8        30.33F WCI  18
WHEELING       CLOUDY    24  16  71 S6        30.30F WCI  17
MORRIS*        MOCLDY    24  23  93 SW5       30.30F WCI  19
ROMEOVILLE*    CLOUDY    26  21  83 SW8       30.29F WCI  17
NORTHERLY ISL    N/A     27  19  72 SW3         N/A
$$

LMZ740>746-311000-
SOUTHERN LAKE MICHIGAN

STATION/POSITION SKY/WX   TEMP    WIND        PRES    VSBY  WAVE
                          AIR SEA DIR/SP/G                  HT/PER
                          (F)     (DEG/KT/KT) (MB)    (MI)  (FT/S)
WAUKEGAN HARBOR            23     220/  7/ 10   N/A
HARRISON CRIB              27     200/ 11/ 15   N/A
BURNHAM HARBOR             27     240/  4/  8   N/A
CALUMET HARBOR             26     210/  5/  6   N/A
MICHIGAN CITY              24     160/ 11/ 14   N/A
$$

ILZ025>027-034>036-040-047-049-050-058-095>099-311000-
WEST-CENTRAL ILLINOIS

CITY           SKY/WX    TMP DP  RH WIND       PRES   REMARKS
QUINCY         PTCLDY    24  19  81 S8        30.31F WCI  15
GALESBURG*     PTCLDY    24  20  85 S6        30.29F WCI  17
MACOMB*        PTCLDY    26  21  81 SW6       30.33F WCI  19
JACKSONVILLE*  CLEAR     30  22  73 S7        30.33F WCI  23
PITTSFIELD*    PTCLDY    28  21  75 S5        30.33F WCI  23
$$

ILZ028>032-037-038-041>044-048-051>054-059>061-311000-
CENTRAL ILLINOIS

CITY           SKY/WX    TMP DP  RH WIND       PRES   REMARKS
PONTIAC        MOCLDY    27  23  85 SW5       30.32F WCI  22
BLOOMINGTON    CLOUDY    27  23  84 SW13      30.32F WCI  16
DECATUR        PTCLDY    24  19  81 S7        30.34F WCI  16
PEORIA         CLOUDY    28  21  75 SW8       30.32F WCI  20
LACON*         MOCLDY    24  19  83 CALM      30.32F
LINCOLN*       CLOUDY    29  24  83 S3        30.36F
SPRINGFIELD    MOCLDY    26  20  77 S8        30.34F WCI  18
TAYLORVILLE    FAIR      27  23  86 S6        30.35F WCI  20
$$

ILZ033-039-045-046-055>057-062-063-311000-
EAST-CENTRAL ILLINOIS

CITY           SKY/WX    TMP DP  RH WIND       PRES   REMARKS
CHAMPAIGN      CLOUDY    27  22  81 S6        30.33F WCI  20
DANVILLE*      CLOUDY    22  18  84 S5        30.31F WCI  15
RANTOUL*       CLOUDY    28  23  82 S5        30.33F WCI  23
MATTOON        MOCLDY    26  18  71 S8        30.34F WCI  18
PARIS*         PTCLDY    22  19  87 CALM      30.37F
$$

ILZ079-100>102-311000-
SOUTHWEST ILLINOIS

CITY           SKY/WX    TMP DP  RH WIND       PRES   REMARKS
ALTON          MOCLDY    28  22  80 SE3       30.36F
BELLEVILLE     MOCLDY    26  25  96 SE2       30.36F
CAHOKIA*       MOCLDY    28  22  78 CALM      30.36F
SPARTA*        CLOUDY    29  22  74 S3        30.38F
$$

ILZ064>066-069>071-074>076-080>082-084>086-088>090-092>094-311000-
SOUTH-CENTRAL ILLINOIS

CITY           SKY/WX    TMP DP  RH WIND       PRES   REMARKS
CARBONDALE     MOCLDY    25  21  85 CALM      30.39F
CAIRO*         MOCLDY    31  26  82 CALM      30.40S
EFFINGHAM*     PTCLDY    22  19  86 CALM      30.39F
MARION         MOCLDY    27  23  86 CALM      30.39F
MT. VERNON     CLOUDY    21  18  86 CALM      30.39F
CENTRALIA*     CLOUDY    26  22  87 CALM      30.37F
SALEM*         MOCLDY    29  21  71 SE3       30.38F
METROPOLIS*    CLOUDY    26  26  99 CALM      30.39F
$$

ILZ067-068-072-073-078-083-087-091-311000-
SOUTHEAST ILLINOIS

CITY           SKY/WX    TMP DP  RH WIND       PRES   REMARKS
LAWRENCEVILLE  PTCLDY    22  19  89 CALM      30.40F
FLORA*         PTCLDY    23  23  98 CALM      30.39F
FAIRFIELD*     MOCLDY    24  22  89 CALM      30.39F
HARRISBURG*    MOCLDY    25  24  95 CALM      30.41F
ROBINSON*      PTCLDY    19  18  98 CALM      30.40F
CARMI*         MOCLDY    24  24  97 CALM      30.40F
$$

ABBREVIATIONS USED IN REMARKS
   TC - TEMPERATURE IN CELSIUS
  WCI - WIND CHILL INDEX
   HX - HEAT INDEX
  VSB - VISIBILITY
$$



USA.gov is the U.S. government's official web portal to all federal, state and local government web resources and services.